Location: Great Malvern
(52.1167°N, 2.3167°W)
Time: 15:29:34
(UTC+00:00)

Cosmos 1844 - Pass Details

Date: 18 September 2020
Orbit: 824 x 866 km, 70.9° (Epoch: 21 October)

Event Time Altitude Azimuth Distance (km) Brightness Sun altitude
Rises 21:10:27 0° 214° (SW) 3,412 6.8 -25.3°
Reaches altitude 10° 21:12:54 10° 216° (SW) 2,474 6.1 -25.6°
Maximum altitude 21:18:36 76° 303° (WNW) 873 3.8 -26.3°
Drops below altitude 10° 21:24:15 10° 29° (NNE) 2,460 6.3 -26.9°
Sets 21:26:42 0° 31° (NNE) 3,392 7.0 -27.2°
